Regional Weather Roundup
Issued by NWS

Home | Current Version | Previous Version | Graphics & Text | Print | Product List | Glossary On
Versions: 1 2 3 4 5 6 7 8 9 10 11 12 13 14 15 16 17 18 19 20 21 22 23 24 25 26 27 28 29 30 31 32 33 34 35 36 37 38 39 40 41 42 43 44 45 46 47 48 49 50
000
ASUS43 KLSX 012159
RWRMO

WEATHER SUMMARY FOR MISSOURI
NATIONAL WEATHER SERVICE SPRINGFIELD MO
500 PM CDT SAT AUG 01 2015

NOTE: "FAIR" INDICATES FEW OR NO CLOUDS BELOW 12,000 FEET WITH NO
       SIGNIFICANT WEATHER AND/OR OBSTRUCTIONS TO VISIBILITY.
       CURRENT SKY AND/OR WEATHER CONDITIONS ARE NOT AVAILABLE FOR
       CHILLICOTHE AND FARMINGTON.

MOZ001>031-035>038-043-044-053-054-012300-
...NORTHERN AND WESTERN MISSOURI...

CITY           SKY/WX    TMP DP  RH WIND       PRES   REMARKS
KANSAS CTY INT MOSUNNY   90  70  51 W6        29.97F HX  95
KANSAS C DTWN  MOSUNNY   93  69  45 VRB6      29.95F HX  98
LEE`S SUMMIT   MOSUNNY   88  68  51 MISG      29.99F HX  91
ST JOSEPH      MOSUNNY   89  75  63 W9        29.95F HX  99
CHILLICOTHE      N/A     84  70  62 SE5       29.96F
KIRKSVILLE     PTSUNNY   89  71  55 VRB5      29.98F HX  95

$$
MOZ066>068-077>081-088>096-101>105-012300-
...SOUTHWEST MISSOURI...

CITY           SKY/WX    TMP DP  RH WIND       PRES   REMARKS
SPRINGFIELD    SUNNY     90  59  35 VRB7      30.02F
JOPLIN         MOSUNNY   92  65  40 CALM      30.00F HX  94

$$
MOZ032>034-039>042-045>050-055>058-069>072-012300-
...CENTRAL MISSOURI...

CITY           SKY/WX    TMP DP  RH WIND       PRES   REMARKS
COLUMBIA       PTSUNNY   80  66  62 SW13      30.01S
JEFFERSON CITY CLOUDY    82  65  56 NW9       29.99S
ROLLA          CLOUDY    81  66  60 S7        29.99F
SEDALIA        PTSUNNY   76  68  76 N7        30.04F
WHITEMAN AFB   MOSUNNY   82  64  54 S15       29.99F
OSAGE BEACH    CLOUDY    79  61  53 W3        30.02F

$$
MOZ051-052-059>065-012300-
...EAST CENTRAL MISSOURI...

CITY           SKY/WX    TMP DP  RH WIND       PRES   REMARKS
ST LOUIS INTL  MOSUNNY   91  66  43 W8        29.99F HX  93
SPIRIT OF STL  MOSUNNY   88  70  55 CALM      29.97F HX  93
ST CHARLES     MOSUNNY   88  66  48 CALM      29.97F HX  90

$$
MOZ072>076-082>087-097>100-106>115-012300-
...SOUTH CENTRAL AND SOUTHEAST MISSOURI...

CITY           SKY/WX    TMP DP  RH WIND       PRES   REMARKS
CAPE GIRARDEAU MOSUNNY   87  70  56 CALM      29.98S HX  92
FARMINGTON     CLOUDY    86  68  54 CALM      30.04F
POPLAR BLUFF   MOSUNNY   90  67  46 CALM      29.97S HX  93
WEST PLAINS    SUNNY     89  60  37 SW5       30.05S

$$


USA.gov is the U.S. government's official web portal to all federal, state and local government web resources and services.